Satellite: NOAA-16
Catalog number: 26536
Epoch time:      11110.56324060
Element set:    0267
Inclination:      099.1442 deg
RA of node:       139.9218 deg
Eccentricity:    0.0010567
Arg of perigee:   190.2588 deg
Mean anomaly:     169.8380 deg
Mean motion:   14.12611064 rev/day
Decay rate:       2.69e-06 rev/day^2
Epoch rev:           54522
Checksum:              294

Satellite: NOAA-17
Catalog number: 27453
Epoch time:      11110.71056806
Element set:    0262
Inclination:      098.3849 deg
RA of node:       153.0437 deg
Eccentricity:    0.0011101
Arg of perigee:   321.5880 deg
Mean anomaly:     038.4495 deg
Mean motion:   14.24261563 rev/day
Decay rate:       2.81e-06 rev/day^2
Epoch rev:           45847
Checksum:              287

Satellite: NOAA-18
Catalog number: 28654
Epoch time:      11110.75222943
Element set:    0742
Inclination:      098.9915 deg
RA of node:       061.7737 deg
Eccentricity:    0.0013520
Arg of perigee:   267.7004 deg
Mean anomaly:     092.2606 deg
Mean motion:   14.11463091 rev/day
Decay rate:       1.19e-06 rev/day^2
Epoch rev:           30482
Checksum:              287

Satellite: NOAA-19
Catalog number: 33591
Epoch time:      11111.72946520
Element set:     934
Inclination:      098.8234 deg
RA of node:       052.8427 deg
Eccentricity:    0.0014610
Arg of perigee:   133.2113 deg
Mean anomaly:     227.0768 deg
Mean motion:   14.11156389 rev/day
Decay rate:       3.41e-06 rev/day^2
Epoch rev:           11342
Checksum:              275

/EX
SB KEPS @ AMSAT  $ORB11111.M
Orbital Elements  11111.MISC

HR AMSAT ORBITAL ELEMENTS FOR MANNED AND MISCELLANEOUS SATELLITES
FROM WA5QGD FORT WORTH,TX April 21, 2011
Send Subscribe/unsubscribe to KEPS at http://www.amsat.org/mailman/listinfo/kep
BID: ORB11111.M
TO ALL RADIO AMATEURS BT

Satellite: HUBBLE
Catalog number: 20580
Epoch time:      11109.15405170
Element set:     749
Inclination:      028.4696 deg
RA of node:       042.0585 deg
Eccentricity:    0.0003663
Arg of perigee:   211.8262 deg
Mean anomaly:     148.2086 deg
Mean motion:   15.01292820 rev/day
Decay rate:      1.367e-05 rev/day^2
Epoch rev:           95077
Checksum:              281

Satellite: ISS
Catalog number: 25544
Epoch time:      11112.04999834
Element set:     230
Inclination:      051.6447 deg
RA of node:       089.0426 deg
Eccentricity:    0.0003168
Arg of perigee:   126.4628 deg
Mean anomaly:     348.0957 deg
Mean motion:   15.73827119 rev/day
Decay rate:     3.0536e-04 rev/day^2
Epoch rev:           71206
Checksum:              300

Satellite: CO-58
Catalog number: 28895
Epoch time:      11110.70605244
Element set:     853
Inclination:      097.9739 deg
RA of node:       349.2920 deg
Eccentricity:    0.0018577
Arg of perigee:   044.5747 deg
Mean anomaly:     315.6960 deg
Mean motion:   14.60068709 rev/day
Decay rate:       4.62e-06 rev/day^2
Epoch rev:           29185
Checksum:              343

Satellite: FALCON
Catalog number: 30776
Epoch time:      11110.90916346
Element set:    0076
Inclination:      035.4345 deg
RA of node:       335.2119 deg
Eccentricity:    0.0002475
Arg of perigee:   312.4836 deg
Mean anomaly:     047.5664 deg
Mean motion:   15.04444410 rev/day
Decay rate:      3.054e-05 rev/day^2
Epoch rev:           22641
Checksum:              265

Satellite: MAST
Catalog number: 31126
Epoch time:      11111.66474208
Element set:     139
Inclination:      097.9012 deg
RA of node:       142.0736 deg
Eccentricity:    0.0094586
Arg of perigee:   347.4626 deg
Mean anomaly:     012.4222 deg
Mean motion:   14.53723452 rev/day
Decay rate:       3.95e-06 rev/day^2
Epoch rev:           21287
Checksum:              278

Satellite: CAPE1
Catalog number: 31130
Epoch time:      11110.63367311
Element set:     156
Inclination:      097.9032 deg
RA of node:       137.9555 deg
Eccentricity:    0.0103341
Arg of perigee:   000.9166 deg
Mean anomaly:     359.2211 deg
Mean motion:   14.52354781 rev/day
Decay rate:       2.85e-06 rev/day^2
Epoch rev:           21228
Checksum:              256

Satellite: COMPASS
Catalog number: 32787
Epoch time:      11110.63329417
Element set:    0967
Inclination:      097.8527 deg
RA of node:       175.5119 deg
Eccentricity:    0.0015906
Arg of perigee:   008.2195 deg
Mean anomaly:     351.9266 deg
Mean motion:   14.82315308 rev/day
Decay rate:      1.434e-05 rev/day^2
Epoch rev:           16103
Checksum:              299

Satellite: AAUSAT2
Catalog number: 32788
Epoch time:      11111.68401492
Element set:     956
Inclination:      097.8516 deg
RA of node:       176.7478 deg
Eccentricity:    0.0015358
Arg of perigee:   005.2640 deg
Mean anomaly:     354.8801 deg
Mean motion:   14.82496219 rev/day
Decay rate:      1.808e-05 rev/day^2
Epoch rev:           16120
Checksum:              314

Satellite: DO-64
Catalog number: 32789
Epoch time:      11110.69824258
Element set:    0973
Inclination:      097.8613 deg
RA of node:       176.6794 deg
Eccentricity:    0.0015311
Arg of perigee:   007.2480 deg
Mean anomaly:     352.8924 deg
Mean motion:   14.82888456 rev/day
Decay rate:      2.447e-05 rev/day^2
Epoch rev:           16106
Checksum:              339

